Погода в Седъю

Россия / Республика Коми     63°23′55″N   53°57′40″E
темп.,
°C
ветер,
м/с
пор.,
м/с
влажн.,
%
обл.,
%
осадки,
мм/ч
давл.,
гПа
погр.,
м
3 марта, ср
ср300:00−10ююз119796 0.1 99021
03:00−8з229798 0.3 99057
06:00−12зюз239881 0.0 98930
09:00−7юз259588 0.2 988253
12:00−3зюз3694100 0.7 988522
15:00−4зюз3793100 1.1 988660
18:00−7зюз2796100 0.2 988221
21:00−9з279598 0.3 989217
4 марта, чт
чт400:00−11з269693 0.2 988207
03:00−12з269696 0.4 989212
06:00−13з2596100 0.3 988177
09:00−12з2394100 0.6 989317
12:00−10з2390100 0.2 989436
15:00−9з1393100 0.5 990338
18:00−12зсз229798 0.2 99030
21:00−14сз129799 0.2 99123
5 марта, пт
пт500:00−14зсз2297100 0.1 99236
03:00−14сз2497100 0.4 994138
06:00−17ссз369699 0.2 996241
09:00−17ссз359599 0.3 997281
12:00−16ссз2492100 0.0 998324
15:00−15ссз2491100 0.1 1000381
18:00−17ссз269798 0.0 1002203
21:00−19с249897 0.0 1004130
6 марта, сб
сб600:00−20ссз129896 0.1 100439
03:00−22ссз229994 0.1 100573
06:00−22ссз1298100 0.1 100689
09:00−20с129598 0.1 1006233
12:00−17ссз1188100 0.1 1006449
15:00−17сз1189100 0.1 1006375
18:00−19в1198100 0.1 100620
21:00−20ююв1199100 0.1 100620
7 марта, вс
вс700:00−21ююв119993 0.1 100520
03:00−22ююв119989 0.1 100520
06:00−24ю1110090 0.0 100520
09:00−19ю129495 0.1 1005230
12:00−16ююв1286100 0.0 1004569
15:00−16юв2387100 0.1 1004673
18:00−21вюв229786 0.0 100420
21:00−22вюв229974 0.0 100520